Regional Weather Roundup
Issued by NWS Northern Indiana

Home | Current Version | Previous Version | Graphics & Text | Print | Product List | Glossary On
Versions: 1 2 3 4 5 6 7 8 9 10 11 12 13 14 15 16 17 18 19 20 21 22 23 24 25 26 27 28 29 30 31 32 33 34 35 36 37 38 39 40 41 42 43 44 45 46 47 48 49 50
000
ASUS43 KIWX 242200
RWRIWX

KIWX WEATHER ROUNDUP
NATIONAL WEATHER SERVICE NORTHERN INDIANA
500 PM EST MON NOV 24 2014

NOTE: "FAIR" INDICATES FEW OR NO CLOUDS BELOW 12,000 FEET WITH NO
SIGNIFICANT WEATHER AND/OR OBSTRUCTIONS TO VISIBILITY.

* THESE STATIONS ARE NOT UNDER NWS QUALITY CONTROL. THEY ALSO MAY NOT
  REPORT WEATHER SUCH AS PRECIPITATION OR FOG.

INZ001>027-242300-
NORTHERN INDIANA

CITY           SKY/WX    TMP DP  RH WIND       PRES   REMARKS
GARY*          CLOUDY    32  28  86 W23G46    29.57R WCI  19
SOUTH BEND     CLOUDY    33  32  96 SW28G45   29.55R WCI  20
ELKHART*       LGT RAIN  32  30  93 SW31G38   29.55R WCI  17
GOSHEN         CLOUDY    41  28  60 SW28G44   29.55R
ANGOLA*        CLOUDY    36  30  80 W28G38    29.52R
FORT WAYNE     FLURRIES  36  31  82 SW25G36   29.61R

$$
INZ028>050-242300-
CENTRAL INDIANA

CITY           SKY/WX    TMP DP  RH WIND       PRES   REMARKS
LAFAYETTE      CLOUDY    33  26  75 W17G31    29.69R WCI  22
KOKOMO*        CLOUDY    36  28  75 SW32G38   29.68R
MUNCIE*        LGT RAIN  38  31  76 W17G25    29.67R
INDIANAPOLIS   CLOUDY    37  29  72 SW24G31   29.72R

$$
MIZ043>046-050>051-056>058-064>065-071>073-077>080-242300-
SOUTHWEST LOWER MICHIGAN

CITY           SKY/WX    TMP DP  RH WIND       PRES   REMARKS
BATTLE CREEK   CLOUDY    36  29  75 SW33G43   29.45R
BENTON HARBOR  LGT SNOW  33  29  85 SW26G38   29.50R FOG     WCI  20
COLDWATER*     CLOUDY    36  31  82 SW29G37   29.50R
HOLLAND        MIX PCPN  36  31  82 SW28G47   29.43R
GRAND RAPIDS   FLURRIES  35  33  92 SW28G44   29.39R WCI  22
KALAMAZOO      CLOUDY    34  29  82 SW21G35   29.48R FOG     WCI  22
STURGIS*       CLOUDY    34  30  86 SW28G37   29.51R WCI  20
THREE RIVERS*  CLOUDY    35  31  83 SW16G31   29.50R WCI  25

$$
OHZ001>008-015>018-024>025-242300-
NORTHWEST OHIO

CITY           SKY/WX    TMP DP  RH WIND       PRES   REMARKS
FINDLAY        CLOUDY    42  32  67 SW25G40   29.60R
TOLEDO EXPRESS CLOUDY    39  31  72 SW26G38   29.55R
TOLEDO METCALF CLOUDY    41  32  70 SW30G39   29.56R
LIMA           CLOUDY    42  33  70 SW25G38   29.62R

$$
AND FOR LAKE MICHIGAN COASTAL AND OPEN LAKE BUOY OBSERVATIONS

STATION/POSITION TEMP    WIND        PRES    VSBY  WAVE
                 AIR SEA DIR/SP/G                  HT/PER
                 (F)     (DEG/KT/KT) (MB)    (MI)  (FT/S)
CALUMET HARBOR    31     230/ 16/ 30  999.5R
MICHIGAN CITY     33     200/ 29/ 35   N/A
SAINT JOSEPH      36     200/ 37      999.0R
SOUTH LAKE BUOY   34 42  230/ 31/ 39  994.1R

$$
&&



USA.gov is the U.S. government's official web portal to all federal, state and local government web resources and services.